• In Norway
  • List of Countries
  • For 7 days
  • Water Temperature
  • Satellite Maps
  • Weather Map
  • Weather Widgets
  • user-avatar
    Login

    Hourly Weather Djelfa

    Today, 26 September, Wednesday

    Time Temperature Precipitation Wind Pressure Humidity
    00:00 +22°C° 0 mm 3 mps 670 mmHg 52%
    01:00 +23°C° 0 mm 2 mps 670 mmHg 55%
    02:00 +21°C° 0 mm 2 mps 669 mmHg 57%
    03:00 +20°C° 0 mm 2 mps 669 mmHg 60%
    04:00 +21°C° 0.1 mm 1 mps 669 mmHg 61%
    05:00 +21°C° 0.1 mm 1 mps 669 mmHg 63%
    06:00 +21°C° 0 mm 1 mps 670 mmHg 64%
    07:00 +21°C° 0.2 mm 2 mps 670 mmHg 60%
    08:00 +21°C° 0.2 mm 2 mps 670 mmHg 56%
    09:00 +23°C° 0.2 mm 2 mps 671 mmHg 52%
    10:00 +24°C° 0.3 mm 2 mps 671 mmHg 48%
    11:00 +25°C° 0.3 mm 2 mps 671 mmHg 44%
    12:00 +26°C° 0.3 mm 2 mps 671 mmHg 41%
    13:00 +26°C° 0.3 mm 2 mps 671 mmHg 41%
    14:00 +26°C° 0.3 mm 2 mps 670 mmHg 41%
    15:00 +26°C° 0.3 mm 2 mps 670 mmHg 41%
    16:00 +25°C° 1.4 mm 3 mps 670 mmHg 44%
    17:00 +25°C° 1.4 mm 3 mps 670 mmHg 47%
    18:00 +24°C° 1.4 mm 3 mps 670 mmHg 50%
    19:00 +24°C° 0.8 mm 3 mps 671 mmHg 52%
    20:00 +22°C° 0.8 mm 4 mps 671 mmHg 54%
    21:00 +22°C° 0.8 mm 4 mps 671 mmHg 56%
    22:00 +21°C° 0.1 mm 4 mps 671 mmHg 57%
    23:00 +21°C° 0.1 mm 4 mps 671 mmHg 57%

    Tomorrow, 27 September, Thursday

    Time Temperature Precipitation Wind Pressure Humidity
    00:00 +21°C° 0.1 mm 4 mps 671 mmHg 58%
    01:00 +20°C° 0 mm 4 mps 671 mmHg 60%
    02:00 +20°C° 0 mm 4 mps 670 mmHg 63%
    03:00 +19°C° 0 mm 5 mps 670 mmHg 65%
    04:00 +19°C° 0 mm 4 mps 670 mmHg 67%
    05:00 +18°C° 0 mm 4 mps 670 mmHg 69%
    06:00 +18°C° 0 mm 3 mps 671 mmHg 71%
    07:00 +18°C° 0 mm 3 mps 671 mmHg 67%
    08:00 +19°C° 0 mm 2 mps 671 mmHg 63%
    09:00 +20°C° 0 mm 2 mps 672 mmHg 59%
    10:00 +21°C° 0 mm 2 mps 672 mmHg 54%
    11:00 +23°C° 0 mm 2 mps 672 mmHg 48%
    12:00 +24°C° 0 mm 3 mps 671 mmHg 43%
    13:00 +24°C° 0 mm 3 mps 671 mmHg 39%
    14:00 +25°C° 0 mm 3 mps 671 mmHg 36%
    15:00 +25°C° 0 mm 4 mps 670 mmHg 32%
    16:00 +25°C° 0 mm 4 mps 670 mmHg 33%
    17:00 +23°C° 0 mm 4 mps 670 mmHg 34%
    18:00 +23°C° 0 mm 4 mps 670 mmHg 35%
    19:00 +22°C° 0 mm 4 mps 670 mmHg 36%
    20:00 +21°C° 0 mm 3 mps 670 mmHg 37%
    21:00 +21°C° 0 mm 3 mps 670 mmHg 38%
    22:00 +20°C° 0 mm 3 mps 670 mmHg 38%
    23:00 +19°C° 0 mm 2 mps 669 mmHg 39%

    Day after tomorrow, 28 September, Friday

    Time Temperature Precipitation Wind Pressure Humidity
    00:00 +19°C° 0 mm 2 mps 669 mmHg 39%
    01:00 +18°C° 0 mm 2 mps 669 mmHg 39%
    02:00 +19°C° 0 mm 1 mps 668 mmHg 39%
    03:00 +18°C° 0 mm 1 mps 668 mmHg 40%
    04:00 +18°C° 0 mm 1 mps 668 mmHg 40%
    05:00 +18°C° 0 mm 1 mps 668 mmHg 40%
    06:00 +16°C° 0 mm 1 mps 668 mmHg 40%
    07:00 +19°C° 0 mm 1 mps 668 mmHg 37%
    08:00 +20°C° 0 mm 1 mps 669 mmHg 34%
    09:00 +21°C° 0 mm 1 mps 669 mmHg 32%
    10:00 +22°C° 0 mm 1 mps 669 mmHg 29%
    11:00 +23°C° 0 mm 2 mps 669 mmHg 27%
    12:00 +24°C° 0 mm 2 mps 669 mmHg 25%
    13:00 +25°C° 0 mm 2 mps 668 mmHg 24%
    14:00 +25°C° 0 mm 2 mps 668 mmHg 22%
    15:00 +26°C° 0 mm 3 mps 667 mmHg 21%
    16:00 +25°C° 0 mm 3 mps 667 mmHg 22%
    17:00 +25°C° 0 mm 3 mps 667 mmHg 24%
    18:00 +24°C° 0 mm 3 mps 667 mmHg 25%
    19:00 +23°C° 0 mm 2 mps 667 mmHg 26%
    20:00 +23°C° 0 mm 2 mps 667 mmHg 27%
    21:00 +21°C° 0 mm 2 mps 667 mmHg 28%
    22:00 +20°C° 0 mm 2 mps 667 mmHg 29%
    23:00 +20°C° 0 mm 2 mps 667 mmHg 30%

    29 September, Saturday

    Time Temperature Precipitation Wind Pressure Humidity
    00:00 +19°C° 0 mm 2 mps 666 mmHg 32%
    01:00 +20°C° 0 mm 1 mps 666 mmHg 33%
    02:00 +19°C° 0 mm 1 mps 666 mmHg 35%
    03:00 +19°C° 0 mm 1 mps 665 mmHg 36%
    04:00 +18°C° 0 mm 1 mps 665 mmHg 37%
    05:00 +18°C° 0 mm 1 mps 665 mmHg 38%
    06:00 +18°C° 0 mm 1 mps 665 mmHg 39%
    07:00 +19°C° 0 mm 1 mps 666 mmHg 35%
    08:00 +21°C° 0 mm 1 mps 667 mmHg 30%
    09:00 +23°C° 0 mm 1 mps 667 mmHg 26%
    10:00 +24°C° 0 mm 1 mps 667 mmHg 25%
    11:00 +24°C° 0 mm 1 mps 667 mmHg 23%
    12:00 +25°C° 0 mm 1 mps 667 mmHg 22%
    13:00 +26°C° 0 mm 1 mps 667 mmHg 21%
    14:00 +26°C° 0 mm 1 mps 667 mmHg 20%
    15:00 +27°C° 0 mm 1 mps 666 mmHg 19%
    16:00 +26°C° 0 mm 1 mps 666 mmHg 20%
    17:00 +26°C° 0 mm 2 mps 666 mmHg 22%
    18:00 +25°C° 0 mm 2 mps 666 mmHg 23%
    19:00 +24°C° 0 mm 2 mps 667 mmHg 25%
    20:00 +24°C° 0 mm 2 mps 667 mmHg 27%
    21:00 +23°C° 0 mm 2 mps 667 mmHg 28%
    22:00 +21°C° 0 mm 2 mps 667 mmHg 29%
    23:00 +21°C° 0 mm 2 mps 667 mmHg 29%

    30 September, Sunday

    Time Temperature Precipitation Wind Pressure Humidity
    00:00 +20°C° 0 mm 2 mps 667 mmHg 30%
    01:00 +20°C° 0 mm 2 mps 666 mmHg 31%
    02:00 +19°C° 0 mm 2 mps 666 mmHg 32%
    03:00 +19°C° 0 mm 2 mps 666 mmHg 33%
    04:00 +18°C° 0 mm 2 mps 666 mmHg 34%
    05:00 +18°C° 0 mm 2 mps 666 mmHg 34%
    06:00 +18°C° 0 mm 2 mps 666 mmHg 35%
    07:00 +20°C° 0 mm 2 mps 666 mmHg 32%
    08:00 +21°C° 0 mm 2 mps 667 mmHg 28%
    09:00 +24°C° 0 mm 2 mps 668 mmHg 25%
    10:00 +25°C° 0 mm 2 mps 668 mmHg 24%
    11:00 +26°C° 0 mm 2 mps 668 mmHg 23%
    12:00 +27°C° 0 mm 2 mps 667 mmHg 22%
    13:00 +27°C° 0 mm 2 mps 667 mmHg 22%
    14:00 +27°C° 0 mm 2 mps 667 mmHg 21%
    15:00 +27°C° 0 mm 2 mps 667 mmHg 20%
    16:00 +27°C° 0 mm 2 mps 667 mmHg 22%
    17:00 +26°C° 0 mm 3 mps 667 mmHg 24%
    18:00 +26°C° 0 mm 3 mps 667 mmHg 26%
    19:00 +25°C° 0 mm 2 mps 667 mmHg 28%
    20:00 +24°C° 0 mm 2 mps 667 mmHg 30%
    21:00 +24°C° 0 mm 2 mps 667 mmHg 32%
    22:00 +23°C° 0 mm 1 mps 667 mmHg 34%
    23:00 +22°C° 0 mm 1 mps 666 mmHg 36%

    1 October, Monday

    Time Temperature Precipitation Wind Pressure Humidity
    00:00 +21°C° 0 mm 1 mps 666 mmHg 38%
    01:00 +21°C° 0 mm 1 mps 666 mmHg 38%
    02:00 +21°C° 0 mm 1 mps 666 mmHg 39%
    03:00 +20°C° 0 mm 1 mps 665 mmHg 40%
    04:00 +20°C° 0 mm 1 mps 665 mmHg 41%
    05:00 +20°C° 0 mm 1 mps 665 mmHg 43%
    06:00 +19°C° 0 mm 1 mps 665 mmHg 44%
    07:00 +21°C° 0 mm 1 mps 666 mmHg 41%
    08:00 +21°C° 0 mm 2 mps 666 mmHg 38%
    09:00 +24°C° 0 mm 2 mps 667 mmHg 35%
    10:00 +25°C° 0 mm 3 mps 667 mmHg 32%
    11:00 +26°C° 0 mm 4 mps 667 mmHg 30%
    12:00 +27°C° 0 mm 5 mps 667 mmHg 28%
    13:00 +27°C° 0 mm 5 mps 666 mmHg 27%
    14:00 +27°C° 0 mm 5 mps 666 mmHg 26%
    15:00 +27°C° 0 mm 5 mps 665 mmHg 25%
    16:00 +27°C° 0 mm 5 mps 665 mmHg 26%
    17:00 +26°C° 0 mm 4 mps 665 mmHg 27%
    18:00 +25°C° 0 mm 4 mps 665 mmHg 28%
    19:00 +24°C° 0 mm 3 mps 665 mmHg 30%
    20:00 +23°C° 0 mm 2 mps 665 mmHg 31%
    21:00 +23°C° 0 mm 1 mps 666 mmHg 33%
    22:00 +22°C° 0 mm 1 mps 665 mmHg 35%
    23:00 +21°C° 0 mm 1 mps 665 mmHg 36%
    Show more